[[{"header":{"parameterUnit":"m.s-1","parameterCategory":1,"la1":30.2991,"la2":30.254,"lo1":-89.0895,"lo2":-89.0444,"dy":0.0017,"dx":0.0017,"nx":28,"ny":28,"refTime":"2025-04-14T03:00:00:Z","depth":0,"parameterNumber":2,"parameterNumberName":"U-component_of_WINDS"},"data":[0,0,0,0,0,0,0,0,0,0,0,0,0,0,0,0,0,0,0,0,0,0,0,0,0,0,0,0,0,0,0,0,0,0,0,0,0,0,0,0,0,0,0,0,0,0,0,0,0,0,0,0,0,0,0,0,0,0,2.5013,2.5013,0,2.5082,2.5083,2.5083,2.5066,2.5065,2.5064,2.5063,2.5135,2.5138,2.5141,0,0,0,0,0,0,0,0,0,0,0,0,0,2.4867,2.487,2.5013,2.5014,2.5014,2.5082,2.5083,2.5083,2.5067,2.5065,2.5063,2.5062,2.5134,2.5137,2.5141,0,0,0,0,0,0,0,0,0,0,0,0,0,2.4932,2.487,2.5012,2.5014,2.5015,2.5081,2.5083,2.5084,2.5067,2.5065,2.5063,2.5061,2.5132,2.5137,2.5142,2.5211,0,0,2.5156,2.5158,0,0,0,0,0,0,0,0,2.4929,2.4938,2.5013,2.5014,2.5015,2.5063,2.5058,2.5127,2.5068,2.5047,2.5062,2.506,2.5113,2.5119,2.5136,2.5215,2.5218,2.5157,2.5159,2.5161,2.5163,0,0,0,0,0,0,0,2.4924,2.4935,2.504,2.5014,2.5015,2.5011,2.5019,2.5071,2.509,2.5049,2.5048,2.5056,2.5113,2.5132,2.5138,2.5219,2.5156,2.5161,2.5164,2.5165,2.5357,2.5359,0,0,0,0,0,0,2.4919,2.4931,2.5038,2.5042,2.4966,2.5016,2.5024,2.505,2.509,2.5094,2.5058,2.5055,2.5125,2.5132,2.514,2.5224,2.5161,2.5166,2.5169,2.5355,2.5357,2.536,0,0,0,0,0,0,2.4916,2.4928,2.5035,2.4986,2.5,2.502,2.505,2.5052,2.5071,2.5097,2.51,2.5073,2.5123,2.5134,2.5193,2.5226,2.5168,2.5172,2.5352,2.5355,2.5359,2.5392,0,0,0,0,0,0,2.4912,2.4927,2.4954,2.4987,2.5002,2.5087,2.5052,2.5055,2.5079,2.5076,2.5112,2.5116,2.5123,2.5186,2.5198,2.5232,2.5176,2.5349,2.5353,2.5357,2.5388,2.5396,2.5403,0,0,0,0,0,2.4906,2.4961,2.4955,2.4968,2.5036,2.5089,2.5098,2.5103,2.5082,2.5109,2.5125,2.5115,2.5221,2.5193,2.5206,2.5241,2.5347,2.5352,2.5357,2.5385,2.5394,2.5402,0,0,0,0,0,0,2.4932,2.4965,2.496,2.5026,2.5055,2.5086,2.512,2.5114,2.5149,2.5145,2.5151,2.5159,2.522,2.5237,2.5205,2.531,2.5281,2.5289,2.5297,2.5307,2.5314,2.5309,2.518,0,0,0,0,0,2.4945,2.4985,2.5012,2.5069,2.5083,2.5099,2.5122,2.5124,2.5154,2.5166,2.5187,2.5217,2.5256,2.5282,2.532,2.539,2.5397,2.5421,2.5428,2.5434,2.5441,2.5478,2.5489,2.5376,2.5376,2.5376,0,0,2.4973,2.4996,2.5021,2.5074,2.5097,2.5138,2.5109,2.5155,2.5185,2.5173,2.5231,2.5247,2.528,2.5345,2.5375,2.5361,2.5474,2.5441,2.5445,2.5449,2.5485,2.5495,2.5505,2.538,2.5379,2.5378,0,0,2.5045,2.5067,2.5116,2.5139,2.5172,2.5182,2.5194,2.5226,2.5236,2.5294,2.5286,2.5322,2.5391,2.5415,2.5436,2.5516,2.5508,2.5529,2.5567,2.5604,2.5613,2.5621,2.5649,2.5659,2.5535,2.5535,2.5536,0,2.5076,2.5137,2.5142,2.5188,2.5211,2.5202,2.5251,2.5273,2.5318,2.5334,2.5318,2.5403,2.5425,2.5495,2.5514,2.5532,2.5546,2.5525,2.5611,2.5619,2.5626,2.5653,2.5664,2.5538,2.5537,2.5537,2.5537,0,2.5173,2.5216,2.5251,2.5294,2.5322,2.5369,2.5381,2.5408,2.5408,2.542,2.5478,2.5504,2.5547,2.5564,2.5564,2.5634,2.5624,2.5609,2.558,2.5639,2.5665,2.5675,2.5541,2.554,2.5539,2.5539,0,0,2.5263,2.5307,2.532,2.5339,2.5376,2.5409,2.5456,2.5497,2.552,2.5551,2.5591,2.5648,2.5635,2.5659,2.5662,2.5694,2.5755,2.5675,2.5676,2.5689,2.5833,2.5843,2.5855,2.575,2.5752,2.5753,2.5829,0,2.5337,2.542,2.5425,2.55,2.5539,2.5531,2.5571,2.5598,2.561,2.5646,2.5659,2.57,2.5679,2.5694,2.5725,2.5741,2.5784,2.5735,2.5786,2.5788,2.5778,2.5868,2.588,2.595,2.584,2.5841,2.5842,0,2.5436,2.5469,2.5547,2.5578,2.5594,2.5631,2.5669,2.5703,2.5733,2.574,2.5766,2.5764,2.5812,2.5781,2.5847,2.5814,2.5835,2.5846,2.5849,2.5854,2.5819,2.5875,2.5973,2.5983,2.5858,2.5857,2.5856,0,2.5493,2.5557,2.5612,2.5629,2.5666,2.5692,2.5708,2.5736,2.5761,2.5794,2.581,2.5848,2.587,2.5899,2.5908,2.5885,2.5974,2.5944,2.598,2.598,2.5999,2.5998,2.6102,2.6014,2.6014,2.6013,2.6013,0,2.5575,2.5623,2.5638,2.5672,2.5726,2.5732,2.5784,2.5799,2.5824,2.5861,2.5856,2.589,2.59,2.5936,2.5943,2.5996,2.6006,2.6013,2.6014,2.6013,2.6012,2.6027,2.6022,2.6016,2.6016,2.6015,2.6015,0,2.5648,2.566,2.5719,2.5749,2.5758,2.5796,2.5821,2.5854,2.5865,2.5911,2.5923,2.5941,2.5983,2.5994,2.6045,2.605,2.6112,2.6109,2.6102,2.6102,2.6138,2.6134,2.6254,2.627,2.6172,2.6173,2.6174,0,2.57,2.5736,2.577,2.5794,2.5811,2.585,2.5875,2.5882,2.5908,2.5944,2.5972,2.6014,2.6047,2.6115,2.6133,2.6171,2.6169,2.6208,2.6175,2.6172,2.6169,2.6166,2.617,2.6215,2.6216,2.6217,2.6217,0,2.579,2.5794,2.5829,2.5867,2.5896,2.5927,2.5955,2.5975,2.5986,2.6016,2.6058,2.6084,2.6136,2.6177,2.6216,2.6233,2.6227,2.6228,2.6238,2.6237,2.6231,2.6234,2.6119,2.6225,2.6224,2.6224,2.6223,2.6223,2.5853,2.5885,2.5914,2.5953,2.5976,2.6003,2.6034,2.605,2.6085,2.6127,2.613,2.6176,2.6205,2.6256,2.6275,2.6312,2.63,2.6315,2.6319,2.6323,2.6325,2.6226,2.6319,2.6319,2.6318,2.6318,2.6318,0,2.5943,2.596,2.5997,2.6037,2.6068,2.606,2.6091,2.6118,2.6158,2.6186,2.6218,2.6267,2.6307,2.6328,2.6367,2.6392,2.639,2.6402,2.64,2.6404,2.6334,2.6321,2.6403,2.6403,2.6403,2.6403,2.6403,2.6403,2.5993,2.6046,2.6054,2.6118,2.6136,2.6181,2.6199,2.6224,2.6246,2.63,2.6333,2.6346,2.6371,2.6412,2.6448,2.6453,2.6467,2.648,2.6484,2.6418,2.6409,2.6401,2.6388,2.6483,2.6484,2.6551,2.6551,2.6552]},{"header":{"parameterUnit":"m.s-1","parameterCategory":1,"la1":30.2991,"la2":30.254,"lo1":-89.0895,"lo2":-89.0444,"dy":0.0017,"dx":0.0017,"nx":28,"ny":28,"refTime":"2025-04-14T03:00:00:Z","depth":0,"parameterNumber":3,"parameterNumberName":"V-component_of_WINDS"},"data":[0,0,0,0,0,0,0,0,0,0,0,0,0,0,0,0,0,0,0,0,0,0,0,0,0,0,0,0,0,0,0,0,0,0,0,0,0,0,0,0,0,0,0,0,0,0,0,0,0,0,0,0,0,0,0,0,0,0,5.7168,5.7168,0,5.721,5.7211,5.7211,5.7206,5.7205,5.7204,5.7204,5.7241,5.7243,5.7244,0,0,0,0,0,0,0,0,0,0,0,0,0,5.7076,5.7078,5.7168,5.7168,5.7169,5.721,5.7211,5.7211,5.7206,5.7205,5.7204,5.7204,5.7241,5.7243,5.7245,0,0,0,0,0,0,0,0,0,0,0,0,0,5.7117,5.7079,5.7168,5.7171,5.7172,5.721,5.7211,5.7212,5.7206,5.7205,5.7204,5.7203,5.724,5.7242,5.7245,5.728,0,0,5.7252,5.7253,0,0,0,0,0,0,0,0,5.7115,5.712,5.717,5.7171,5.7172,5.7202,5.7192,5.7234,5.7206,5.7193,5.7204,5.7203,5.7229,5.7232,5.7242,5.7282,5.7284,5.7253,5.7254,5.7255,5.7256,0,0,0,0,0,0,0,5.7112,5.7118,5.7184,5.7171,5.7172,5.7169,5.7174,5.72,5.7216,5.7194,5.7194,5.7199,5.7229,5.724,5.7243,5.7284,5.7253,5.7255,5.7256,5.7257,5.7356,5.7357,0,0,0,0,0,0,5.7109,5.7116,5.7183,5.7186,5.7141,5.7171,5.7177,5.7193,5.7216,5.7218,5.72,5.7199,5.7236,5.724,5.7244,5.7287,5.7255,5.7257,5.7259,5.7355,5.7356,5.7357,0,0,0,0,0,0,5.7107,5.7115,5.7181,5.7151,5.7159,5.7174,5.7193,5.7195,5.7205,5.722,5.7222,5.7209,5.7235,5.7241,5.7272,5.7289,5.7259,5.7261,5.7353,5.7355,5.7357,5.7374,0,0,0,0,0,0,5.7105,5.7114,5.7129,5.7151,5.7161,5.721,5.7194,5.7196,5.721,5.7209,5.7229,5.7231,5.7235,5.7268,5.7274,5.7291,5.7263,5.7352,5.7354,5.7356,5.7372,5.7376,5.738,0,0,0,0,0,5.7101,5.7131,5.713,5.7138,5.718,5.7211,5.7216,5.7222,5.7212,5.7226,5.7236,5.723,5.7286,5.7272,5.7278,5.7296,5.7351,5.7354,5.7356,5.737,5.7375,5.738,0,0,0,0,0,0,5.7108,5.7134,5.7133,5.7171,5.719,5.721,5.7228,5.7227,5.7247,5.7245,5.7249,5.7253,5.7285,5.7294,5.7277,5.7332,5.7317,5.7321,5.7325,5.733,5.7334,5.7331,5.7265,0,0,0,0,0,5.7114,5.7139,5.716,5.7191,5.7201,5.7213,5.7227,5.723,5.7248,5.7255,5.7267,5.7283,5.7304,5.7317,5.7338,5.7373,5.7377,5.7389,5.7393,5.7396,5.7399,5.7419,5.7425,5.7366,5.7366,5.7366,0,0,5.7126,5.7144,5.7159,5.7193,5.7207,5.7232,5.7219,5.7245,5.7263,5.7258,5.7289,5.7298,5.7316,5.735,5.7366,5.7358,5.7417,5.7399,5.7402,5.7403,5.7422,5.7428,5.7433,5.7368,5.7367,5.7367,0,0,5.7161,5.7177,5.7206,5.7221,5.7244,5.7253,5.7259,5.7281,5.7288,5.7319,5.7316,5.7336,5.7373,5.7386,5.7397,5.7439,5.7435,5.7445,5.7465,5.7484,5.7489,5.7493,5.7508,5.7513,5.7449,5.7449,5.7449,0,5.7173,5.7212,5.722,5.7247,5.7262,5.7261,5.729,5.7303,5.733,5.734,5.7332,5.7378,5.739,5.7428,5.7438,5.7447,5.7454,5.7443,5.7488,5.7492,5.7496,5.751,5.7516,5.745,5.745,5.745,5.7449,0,5.7225,5.7252,5.7272,5.7301,5.7318,5.7345,5.7356,5.7372,5.7374,5.7383,5.7415,5.743,5.7453,5.7462,5.7463,5.75,5.7495,5.7487,5.7472,5.7503,5.7516,5.7522,5.7451,5.7451,5.7451,5.745,0,0,5.7264,5.73,5.7307,5.732,5.7346,5.7366,5.7393,5.7418,5.7432,5.7451,5.7473,5.7504,5.7498,5.7511,5.7514,5.7531,5.7563,5.7521,5.7522,5.7528,5.7604,5.7609,5.7615,5.756,5.7562,5.7562,5.7602,0,5.7302,5.7352,5.7361,5.7404,5.7429,5.7429,5.7453,5.747,5.7479,5.75,5.7508,5.7531,5.7521,5.7529,5.7546,5.7555,5.7578,5.7553,5.758,5.7581,5.7575,5.7622,5.7628,5.7665,5.7608,5.7608,5.7609,0,5.7352,5.7376,5.7422,5.7446,5.7457,5.7478,5.7502,5.7522,5.7542,5.7547,5.7563,5.7564,5.759,5.7574,5.761,5.7593,5.7604,5.7611,5.7612,5.7614,5.7597,5.7626,5.7677,5.7682,5.7617,5.7617,5.7616,0,5.7376,5.7419,5.7453,5.7464,5.7493,5.7508,5.752,5.7539,5.7554,5.7574,5.7584,5.7606,5.7618,5.7635,5.7641,5.7629,5.7677,5.7662,5.7681,5.7681,5.7691,5.769,5.7744,5.7698,5.7698,5.7698,5.7698,0,5.7417,5.7446,5.7464,5.7485,5.7517,5.7526,5.7556,5.7567,5.7585,5.7606,5.7607,5.7626,5.7634,5.7655,5.7659,5.7689,5.7694,5.7698,5.7699,5.7698,5.7697,5.7705,5.7703,5.77,5.7699,5.7699,5.7699,0,5.7449,5.7463,5.75,5.7525,5.7532,5.7554,5.7574,5.7593,5.7603,5.763,5.7637,5.7651,5.7676,5.7684,5.7713,5.7716,5.775,5.7748,5.7744,5.7744,5.7763,5.7761,5.7824,5.7833,5.7782,5.7782,5.7782,0,5.7474,5.7497,5.7525,5.7541,5.7555,5.758,5.7596,5.7606,5.7622,5.7647,5.7663,5.7688,5.7708,5.7747,5.7758,5.778,5.7779,5.78,5.7782,5.7781,5.778,5.7778,5.778,5.7803,5.7803,5.7804,5.7804,0,5.7518,5.7524,5.7549,5.7576,5.7596,5.7617,5.7638,5.765,5.7662,5.7681,5.7707,5.7723,5.7754,5.7778,5.7801,5.7811,5.781,5.781,5.7816,5.7815,5.7811,5.7814,5.7753,5.7808,5.7808,5.7807,5.7807,5.7807,5.7547,5.7567,5.7591,5.7619,5.7636,5.7655,5.7675,5.7688,5.7711,5.7739,5.7743,5.7771,5.779,5.7821,5.7832,5.7853,5.7847,5.7856,5.7858,5.7859,5.7861,5.7809,5.7857,5.7857,5.7857,5.7857,5.7857,0,5.759,5.7606,5.7632,5.7662,5.7684,5.7683,5.7706,5.7723,5.7749,5.7768,5.7789,5.7819,5.7843,5.7857,5.7881,5.7895,5.7895,5.7901,5.79,5.7902,5.7865,5.7858,5.7901,5.7901,5.7901,5.7901,5.7901,5.7901,5.7615,5.765,5.766,5.7702,5.7717,5.7747,5.7761,5.7778,5.7794,5.7828,5.7849,5.786,5.7876,5.7901,5.7923,5.7926,5.7935,5.7941,5.7944,5.7909,5.7905,5.79,5.7894,5.7943,5.7943,5.798,5.798,5.798]}]]